User: anonymous   Login
Location: Unspecified
(0.0000°N, 0.0000°E)
Time: 08:40:04
(UTC+00:00)
Language:

GOES 6 - Orbit

View from above orbital plane
View from above orbital plane
View from above satellite
View from above satellite

Ground track
Ground track

The orbit data is extracted from the following two-line orbital elements,

1 14050U 83041A   18019.49840501 -.00000143 +00000-0 +00000-0 0  9995
2 14050 014.4417 347.6533 0003490 285.5130 287.4813 01.00219789185266
Epoch (UTC): 19 January 2018 11:57:42
Eccentricity: 0.0003490
inclination: 14.4417°
perigee height: 35786 km
apogee height: 35815 km
right ascension of ascending node: 347.6533°
argument of perigee: 285.5130°
revolutions per day: 1.00219789
mean anomaly at epoch: 287.4813°
orbit number at epoch: 18526

The dashed part of the orbit path shows where the satellite is in the earth's shadow,  

DLR